Volver al catálogo

COSMOS 1928

ActivoMilitarLEO
NORAD 18941·PAYLOAD·🇷🇺 Russia

Lanzado Mar 11, 1988 desde Plesetsk Cosmodrome

Loading…

Próximos Pases (próximas 24 horas)

TLE

ActualizadoSource: Space-Track

Época: Sep 14, 2026, 23:07 UTC

1 18941U 88016E   26257.96342679 -.00000027  00000-0 -66870-4 0  9996
2 18941  74.0022  82.7780 0010415  85.9397  68.1657 12.52895633668113

Sigue COSMOS 1928 en tiempo real con AllMySat

Download on the App Store